Flag for Canada Weather past 2 weeks in Arviat, Nunavut Territory, Canada

Now
64 °F

Sunny.


Feels Like: 64 °F
Forecast: 52 / 64 °F
Wind: 9 mph from Northeast

Location: Arviat Airport

Current Time: Jul 24, 2014 at 12:04:56 PM

Latest Report: Jul 24, 2014 at 11:00 AM


Visibility: 15 mi

Pressure: 29.93 "Hg

Humidity: 60%

Dew point: 50 °F

Location of ArviatLocation

Historic Weather in Arviat — Graph

°F

Arviat temperature yesterday

Maximum temperature yesterday: 72 °F (at 3:00 PM)
Minimum temperature yesterday: 55 °F (at 3:00 AM)
Average temperature yesterday: 63 °F

Past Weeks' High & Low Weather Summary

 TemperatureHumidityPressure
High79 °F (Jul 15, 3:00 PM)100% (Jul 10, 1:00 AM)30.28 "Hg (Jul 10, 1:00 AM)
Low41 °F (Jul 11, 5:00 PM)31% (Jul 23, 3:00 PM)29.32 "Hg (Jul 17, 5:00 AM)
Average53 °F80%29.76 "Hg
* Reported Jul 9 11:00 AM — Jul 24 11:00 AM, Arviat, Weather by CustomWeather, © 2014

Note: Actual official high and low records may vary slightly from our data, if they occured in-between our weather recording intervals... More about our weather records

Advertising

Arviat weather history for previous 24 hours

 ConditionsComfort  
Time TempWeatherWind HumidityBarometerVisibility
11:00 AM
Jul 24
64 °FSunny.9 mph60%29.93 "Hg15 mi
10:00 AM63 °FSunny.9 mph64%29.95 "Hg15 mi
9:00 AM63 °FSunny.8 mph64%29.95 "Hg15 mi
8:00 AM59 °FSunny.9 mph72%29.96 "Hg15 mi
7:00 AM55 °FSunny.8 mph82%29.96 "Hg15 mi
6:00 AM54 °FSunny.9 mph82%29.97 "Hg9 mi
5:00 AM50 °FClear.6 mph94%29.97 "Hg9 mi
4:00 AM52 °FClear.6 mph88%29.97 "Hg9 mi
3:00 AM50 °FClear.8 mph94%29.97 "Hg9 mi
2:00 AM52 °FClear.7 mph94%29.97 "Hg9 mi
1:00 AM54 °FClear.6 mph88%29.97 "Hg9 mi
12:00 AM57 °FClear.5 mph72%29.97 "Hg9 mi
11:00 PM
Jul 23
61 °FSunny.No wind63%29.98 "Hg9 mi
10:00 PM61 °FSunny.2 mph68%29.98 "Hg7 mi
9:00 PM64 °FSunny.5 mph56%29.99 "Hg9 mi
8:00 PM68 °FPassing clouds.6 mph46%30.00 "Hg9 mi
7:00 PM64 °FSunny.6 mph56%30.01 "Hg9 mi
6:00 PM64 °FSunny.6 mph56%30.02 "Hg9 mi
5:00 PM66 °FScattered clouds.7 mph49%30.02 "Hg15 mi
4:00 PM68 °FScattered clouds.9 mph49%30.02 "Hg15 mi
3:00 PM72 °FScattered clouds.20 mph31%30.02 "Hg15 mi
2:07 PM70 °FPassing clouds.15 mph38%30.02 "Hg15 mi
1:00 PM68 °FPassing clouds.16 mph49%30.03 "Hg15 mi
12:00 PM68 °FPassing clouds.17 mph49%30.03 "Hg15 mi
Weather by CustomWeather, © 2014

See weather overviewHow to use our weather pages